www.pogodaiklimat.ru

Погода и климат >> Архив погоды >> Россия >> Якутия >> Андрюшкино


ПОГОДА в Андрюшкино

  • Прогноз погоды в Андрюшкино
  • Монитор погоды в Андрюшкино

АРХИВ ПОГОДЫ в Андрюшкино

Время (UTC), дата Ветер
(напр.,м/с)
 
Видим.   Явления Облачность Т
(С)
Тd
(С)
f
(%)
Тe
(С)
Тes
(С)
Комфортность P
(гПа)
Po
(гПа)
Тmin
(С)
Tmax
(С)
R
(мм)
R24
(мм)
S
(см)
15 11.04 С 1 500 м туман ?/? -18.2 -19.4 90 -21 -21 1009.4 1007.2
18 11.04 С 1 500 м туман ?/? -19.6 -20.8 90 -23 -23 1009.2 1007.0
21 11.04 СВ 1 50 км {туман} 8/1 200 м
[St Ci fib]
-19.9 -21.1 90 -23 -21 1009.2 1007.0 -23.8 28
00 12.04 С 1 10 км дымка {туман} 8/0
[Ac trans Ci fib]
-18.0 -19.2 90 -21 -17 1008.8 1006.6
03 12.04 С 2 50 км 9/0
[Ac As Ci fib]
-15.9 -17.8 85 -21 -18 1008.2 1006.1
06 12.04 С 2 50 км 8/0
[As trans Ci fib]
-15.0 -16.3 90 -20 -18 1008.3 1006.2
09 12.04 С 1 50 км 8/0
[Ac As Ci fib]
-15.7 -17.0 90 -18 -18 1006.5 1006.4 -14.6
12 12.04 штиль 0 50 км 3/0
[Ac As Ci fib]
-19.5 -20.7 90 -20 -20 1009.1 1006.9
15 12.04 В 1 50 км 6/0
[Ac trans Ci fib]
-23.0 -24.3 89 -26 -26 1009.1 1006.9
18 12.04 В 1 10 км дымка 4/3 200 м
[St Ci fib]
-24.4 -25.6 90 -28 -28 1009.7 1007.5
21 12.04 штиль 0 4000 м дымка {туман} 3/3 200 м
[St]
-21.5 -22.7 90 -22 -20 1010.1 1007.9 -24.5 28
00 13.04 Ю 1 50 км {туман} ясно -14.5 -15.8 90 -17 -11 1010.6 1008.4
03 13.04 Ю 1 50 км ясно -9.0 -15.1 61 -11 -5 1010.6 1008.5
06 13.04 С 2 50 км 1/0
[Ac trans]
-9.6 -13.2 75 -14 -12 1010.7 1008.6
09 13.04 В 2 50 км ясно -11.0 -13.8 80 -16 -15 1010.5 1008.4 -6.0
12 13.04 В 1 50 км ясно -13.5 -15.5 85 -16 -16 1010.9 1007.8
15 13.04 В 1 50 км пыльная буря {метель} 4/0
[]
-12.1 -14.8 80 -14 -14 1010.4 1008.3
18 13.04 В 2 50 км 8/0
[Ac As]
-12.6 -15.3 80 -17 -17 1009.5 1007.4
21 13.04 СВ 2 50 км 6/0
[Ac As Cs]
-14.4 -17.1 80 -19 -18 1009.3 1007.2 -14.6 28
00 14.04 В 1 50 км 6/0
[Ac As Ci fib]
-10.2 -14.6 70 -12 -8 1009.4 1007.3
03 14.04 С 1 50 км ясно -9.3 -13.3 73 -12 -5 1009.7 1007.6
06 14.04 С 1 50 км 4/0
[Ci fib]
-10.2 -13.0 80 -12 -10 1010.6 1008.5
09 14.04 С 1 50 км 6/0
[As trans Ci fib]
-14.0 -16.0 85 -16 -16 1011.7 1009.6 -6.5
12 14.04 С 2 50 км 4/0
[Ac As]
-19.5 -20.7 90 -25 -25 1012.1 1009.9
15 14.04 С 1 50 км 3/0
[As trans]
-21.5 -22.7 90 -25 -25 1012.3 1010.1
18 14.04 С 2 50 км 8/0
[Ac As]
-19.0 -20.2 90 -25 -25 1011.7 1009.5
21 14.04 С 2 50 км 6/0
[Ac trans Ci fib]
-17.4 -18.6 90 -23 -21 1010.9 1008.7 -22.8 28
00 15.04 штиль 0 50 км 4/0
[Ci fib]
-10.4 -13.2 80 -11 -4 1009.9 1007.8
03 15.04 В 2 50 км 3/0
[Ci fib]
-2.6 -8.2 65 -6 -1 1008.6 1006.5
06 15.04 В 2 50 км ясно 0.0 -6.1 63 -3 -1 1007.4 1005.4
09 15.04 В 2 50 км 3/0
[Ci fib]
-2.0 -7.8 64 -6 -5 1007.2 1005.2 +0.5
12 15.04 В 3 50 км 3/0
[Ci fib]
-5.2 -10.2 68 -10 -10 1007.4 1005.3
15 15.04 ЮВ 4 50 км 6/0
[Ac trans Ci fib]
-5.2 -9.3 73 -11 -11 1006.4 1004.3
18 15.04 ЮВ 4 50 км 3/0
[Ac trans Ci fib]
-7.2 -11.1 74 -14 -14 1006.5 1004.4
21 15.04 ЮВ 3 50 км 6/0
[Ac trans Ci fib]
-6.2 -10.7 70 -12 -10 1006.6 1004.5 -7.5 28
00 16.04 ЮВ 3 50 км 8/0
[Ac trans Ci fib]
-2.6 -8.7 63 -7 -4 1007.0 1004.9
03 16.04 Ю 3 50 км 4/0
[Ac trans Ci fib]
-1.5 -7.5 64 -6 -2 1007.9 1005.9
06 16.04 Ю 2 50 км 4/0
[Ac trans Ci fib]
-0.5 -7.2 60 -4 -2 1008.6 1006.6
09 16.04 СВ 2 50 км 1/0
[Ci fib]
-5.5 -10.2 69 -10 -9 1010.4 1008.3 +0.1
12 16.04 С 2 50 км ясно -14.8 -16.8 85 -20 -20 1012.3 1010.1
15 16.04 С 2 50 км ясно -17.5 -18.1 95 -23 -23 1014.1 1011.9
18 16.04 С 2 50 км ясно -19.6 -20.8 90 -25 -25 1015.8 1013.6
21 16.04 СВ 4 50 км ясно -13.4 -16.1 80 -21 -19 1017.4 1015.2 -20.6 27
00 17.04 СВ 4 50 км 3/0
[]
-12.4 -15.9 75 -20 -16 1018.1 1015.9
03 17.04 В 3 50 км 1/0
[Ci fib]
-9.6 -13.2 75 -15 -11 1018.8 1016.7
06 17.04 В 5 50 км 3/0
[As trans Ci fib]
-7.1 -13 -12 1018.1 1016.0
09 17.04 В 6 50 км 6/0
[Ac As Ci fib]
-8.5 -11.3 80 -17 -17 1017.5 1015.4 -6.8
12 17.04 В 7 50 км 8/0
[Ac As Ci fib]
-8.5 -11.3 80 -17 -17 1016.4 1014.3
15 17.04 В 6 50 км 9/0
[Ac As Ci fib]
-6.0 -10.4 71 -14 -14 1015.1 1013.0
18 17.04 В 5 50 км 6/0
[Ac As Ci fib]
-6.9 -11.6 69 -14 -14 1013.6 1011.5
21 17.04 В 7 50 км 8/0
[Ac As Ci fib]
-4.4 -10.4 63 -12 -12 1011.3 1009.2 -9.9 27
00 18.04 ЮВ 5 50 км 6/0
[Ac trans Ci fib]
-1.0 -8.4 57 -7 -4 1009.4 1007.4
03 18.04 В 4 50 км 8/0
[Ac trans Ci fib]
+2.0 -6.5 53 -2 +1 1007.4 1005.4
06 18.04 ЮВ 4 50 км 10/0
[Ac As]
+2.1 -6.7 52 -2 -2 1005.4 1003.4
09 18.04 Ю 2 50 км 10/0
[Ac As]
+0.4 -7.4 56 -3 -3 1004.6 1002.6 +2.7
12 18.04 В 2 10 км слаб. снег 10/4 200 м
[Frnb As op]
-1.5 -2.6 92 -5 -5 1003.8 1001.8

 

Местоположение метеостанции Андрюшкино (Якутия, Россия): широта 69.17 долгота 154.50 высота над уровнем моря 16 м.

В архиве по умолчанию представлена погода в Андрюшкино за последнюю неделю. Архивные данные за месяц целиком и за предыдущие месяцы, начиная с января 2011 года, Вы можете получить, выбрав интересующий диапазон дат из раскрывающегося списка и нажав кнопку "Ввод!".


*Определитесь, кто Вы:
робот инопланетянин человек

Внимание! Время в таблицах - всемирное. Для получения местного времени необходимо прибавить поправку, которая равна 11 ч.

Смотрите также архив погоды в соседних городах и на ближайших метеорологических станциях:

Погода в Колымской (Якутия, Россия) (171 км)
Погода в Среднеколымске (Якутия, Россия) (194 км)
Погода в Черском (Якутия, Россия) (276 км)
Погода в Константиновской (Чукотка, Россия) (290 км)
Погода в Анюйске (Чукотка, Россия) (296 км)
Погода в Чокурдахе (Якутия, Россия) (302 км)
Погода в Бухте Амбарчик (Чукотка, Россия) (309 км)
Погода в Белой Горе (Якутия, Россия) (340 км)
Погода в Островном (Чукотка, Россия) (406 км)
Погода в Зырянке (Якутия, Россия) (412 км)

Пояснения к столбцам:

Ветер - указаны скорость ветра в м/с - средняя за 10 мин, порывы в срок и между сроками (в фигурных скобках) и направление, откуда дует ветер: С - северный, СВ - северо-восточный, В - восточный, ЮВ - юго-восточный, Ю - южный, ЮЗ - юго-западный, З - западный, СЗ - северо-западный.
Видимость - горизонтальная дальность видимости в метрах или километрах. При видимости от 1 до 10 км при отсутствии осадков обычно наблюдается дымка, при ухудшении видимости до 1 км и менее - туман. В сухую погоду видимость может ухудшаться дымом, пылью или мглою.
Явления - указаны атмосферные явления, наблюдавшиеся в срок или в последний час перед сроком; фигурными скобками обозначены явления, наблюдавшиеся между сроками (за 1-3 часа до срока); квадратными скобками обозначены град или гололедные отложения с указанием их диаметра в мм.
Облачность - указаны через наклонную черту общая и нижняя облачность в баллах и высота нижней границы облаков в метрах; квадратными скобками обозначены формы облаков: Ci - перистые, Cs - перисто-слоистые, Cc - перисто-кучевые, Ac - высококучевые, As - высокослоистые, Sc - слоисто-кучевые, Ns - слоисто-дождевые, Cu - кучевые, Cb - кучево-дождевые. Подробнее классификацию облаков см. в Атласе облаков (PDF).
T - Температура воздуха - температура, измеренная на высоте 2 м над землей.
Td - Температура точки росы - температура, при понижении до которой содержащийся в воздухе водяной пар достигнет насыщения.
f - Относительная влажность воздуха - влажноcть воздуха, измеренная на высоте 2 м над землей.
Te - Эффективная температура - температура, которую ощущает одетый по сезону человек в тени. Характеристика душности погоды. При расчете учитывается влияние влажности воздуха и скорости ветра на теплоощущения человека.
Tes - Эффективная температура на солнце - температура, которую ощущает человек, с поправкой на солнечный нагрев. Характеристика знойности погоды. Зависит от высоты солнца над горизонтом, облачности и скорости ветра. Ночью, в пасмурную погоду, а также при ветре 12 м/с и более поправка равна нулю.
P - Атмосферное давление - приведенное к уровню моря атмосферное давление.
Po - Атмосферное давление - измеренное на уровне метеостанции атмосферное давление.
Tmin - Минимальная температура - минимум температуры воздуха на высоте 2 м над землей.
Tmax - Максимальная температура - максимум температуры воздуха на высоте 2 м над землей.
R - Количество осадков - Количество выпавших осадков за период времени, мм. При наведении курсора мыши на число - период времени, за который выпало указанное количество осадков.
R24 - Количество осадков - Количество выпавших осадков за 24 часа, мм.
S - Снежный покров - Высота снежного покрова, см. При наведении курсора мыши на число - состояние снежного покрова и степень покрытия местности в баллах.